Regional Weather Roundup
Issued by NWS

Home | Current Version | Previous Version | Graphics & Text | Print | Product List | Glossary Off
Versions: 1 2 3 4 5 6 7 8 9 10 11 12 13 14 15 16 17 18 19 20 21 22 23 24 25 26 27 28 29 30 31 32 33 34 35 36 37 38 39 40 41 42 43 44 45 46 47 48 49 50

000
ASUS43 KFSD 261810
RWRSD

WEATHER ROUNDUP FOR SOUTH DAKOTA
NATIONAL WEATHER SERVICE SIOUX FALLS SD
100 PM CDT SAT JUL 26 2014

NOTE: "FAIR" INDICATES FEW OR NO CLOUDS BELOW 12,000 FEET WITH NO
SIGNIFICANT WEATHER AND/OR OBSTRUCTIONS TO VISIBILITY.


SDZ001>005-009-010-012>017-261900-
NORTHWEST AND NORTH CENTRAL SOUTH DAKOTA

CITY           SKY/WX    TMP DP  RH WIND       PRES   REMARKS
BUFFALO          N/A     75  45  34 W28G35    30.01S
FAITH            N/A     80  45  28 NW23G32   30.01S
MOBRIDGE       SUNNY     82  49  31 NW21G30   29.91S
$$

SDZ012>016-024>037-041>051-057-063-072>074-261900-
SOUTHWEST AND SOUTH CENTRAL SOUTH DAKOTA

CITY           SKY/WX    TMP DP  RH WIND       PRES   REMARKS
RAPID CTY ARPT SUNNY     78  46  32 N18G25    30.07S
PIERRE         SUNNY     83  50  31 N16       29.96R
CUSTER         SUNNY     77  33  20 VRB7G17   30.19S
ELLSWORTH AFB  SUNNY     78  46  31 N20G26    30.08S
PHILIP         SUNNY     83  46  27 N12       30.01R
PINE RIDGE     SUNNY     79  49  34 N12       30.09R
WINNER         CLOUDY    75  65  70 VRB5      29.99S
$$

SDZ004>011-016>023-039-040-261900-
NORTHEAST SOUTH DAKOTA

CITY           SKY/WX    TMP DP  RH WIND       PRES   REMARKS
ABERDEEN       SUNNY     83  50  31 W13       29.89R
WATERTOWN      MOSUNNY   79  66  64 W18       29.89F
SISSETON         N/A     82  65  56 NW13      29.83S
$$

SDZ017-020-022-023-036>040-048>070-261900-
SOUTHEAST SOUTH DAKOTA

CITY           SKY/WX    TMP DP  RH WIND       PRES   REMARKS
SIOUX FALLS    LGT RAIN  76  67  73 SE13      29.89F
HURON          SUNNY     79  63  57 W9        29.92R
CHAMBERLAIN    PTSUNNY   79  62  56 N5        29.96S
MITCHELL       PTSUNNY   78  66  66 S8        29.91S
YANKTON        PTSUNNY   72  68  88 NE8       29.92S
$$

ABBREVIATIONS USED IN REMARKS
   TC - TEMPERATURE IN CELSIUS
  WCI - WIND CHILL INDEX
   HX - HEAT INDEX
  VSB - VISIBILITY



USA.gov is the U.S. government's official web portal to all federal, state and local government web resources and services.